TimeEST,TemperatureF,Dew PointF,Humidity,Sea Level PressureIn,VisibilityMPH,Wind Direction,Wind SpeedMPH,Gust SpeedMPH,PrecipitationIn,Events,Conditions,WindDirDegrees,DateUTC
12:15 AM,28.4,26.6,93,29.82,10.0,WNW,4.6,-,N/A,,Mostly Cloudy,300,2013-12-10 05:15:00
12:35 AM,28.4,26.6,93,29.81,10.0,West,5.8,-,N/A,,Partly Cloudy,280,2013-12-10 05:35:00
12:55 AM,28.4,26.6,93,29.81,10.0,WNW,4.6,-,N/A,,Clear,290,2013-12-10 05:55:00
1:15 AM,28.4,26.6,93,29.82,10.0,West,4.6,-,N/A,,Clear,270,2013-12-10 06:15:00
1:35 AM,28.4,26.6,93,29.83,10.0,West,5.8,-,N/A,,Clear,270,2013-12-10 06:35:00
1:55 AM,26.6,26.6,100,29.84,10.0,West,9.2,-,N/A,,Clear,260,2013-12-10 06:55:00
2:15 AM,26.6,24.8,93,29.83,10.0,West,10.4,-,N/A,,Clear,270,2013-12-10 07:15:00
2:35 AM,26.6,24.8,93,29.84,10.0,West,9.2,-,N/A,,Clear,280,2013-12-10 07:35:00
2:55 AM,26.6,24.8,93,29.84,10.0,West,9.2,-,N/A,,Clear,280,2013-12-10 07:55:00
3:15 AM,24.8,23.0,93,29.83,10.0,West,8.1,-,N/A,,Clear,270,2013-12-10 08:15:00
3:35 AM,24.8,23.0,93,29.82,10.0,West,6.9,-,N/A,,Clear,270,2013-12-10 08:35:00
3:55 AM,24.8,23.0,93,29.83,10.0,West,8.1,-,N/A,,Clear,270,2013-12-10 08:55:00
4:15 AM,24.8,23.0,93,29.82,10.0,West,6.9,-,N/A,,Clear,260,2013-12-10 09:15:00
4:35 AM,24.8,23.0,93,29.82,10.0,West,8.1,-,N/A,,Clear,270,2013-12-10 09:35:00
4:55 AM,24.8,21.2,86,29.83,10.0,West,6.9,-,N/A,,Clear,270,2013-12-10 09:55:00
5:15 AM,24.8,21.2,86,29.84,10.0,West,9.2,-,N/A,,Clear,270,2013-12-10 10:15:00
5:35 AM,24.8,21.2,86,29.84,10.0,West,6.9,-,N/A,,Clear,270,2013-12-10 10:35:00
5:55 AM,24.8,23.0,93,29.86,10.0,WSW,5.8,-,N/A,,Clear,250,2013-12-10 10:55:00
6:15 AM,24.8,24.8,100,29.87,10.0,West,4.6,-,N/A,,Clear,280,2013-12-10 11:15:00
6:35 AM,26.6,24.8,93,29.86,10.0,West,5.8,-,N/A,,Clear,270,2013-12-10 11:35:00
6:55 AM,26.6,24.8,93,29.85,10.0,West,5.8,-,N/A,,Scattered Clouds,260,2013-12-10 11:55:00
7:15 AM,26.6,24.8,93,29.84,10.0,West,5.8,-,N/A,,Mostly Cloudy,270,2013-12-10 12:15:00
7:35 AM,26.6,24.8,93,29.84,10.0,West,4.6,-,N/A,,Scattered Clouds,260,2013-12-10 12:35:00
7:55 AM,28.4,24.8,86,29.85,10.0,WSW,5.8,-,N/A,,Mostly Cloudy,250,2013-12-10 12:55:00
8:15 AM,28.4,26.6,93,29.84,10.0,West,4.6,-,N/A,,Mostly Cloudy,270,2013-12-10 13:15:00
8:35 AM,28.4,26.6,93,29.86,10.0,WSW,5.8,-,N/A,,Overcast,250,2013-12-10 13:35:00
8:55 AM,28.4,26.6,93,29.87,10.0,WSW,3.5,-,N/A,,Overcast,250,2013-12-10 13:55:00
9:15 AM,30.2,28.4,93,29.85,10.0,WSW,5.8,-,N/A,,Overcast,240,2013-12-10 14:15:00
9:35 AM,32.0,28.4,87,29.86,10.0,WSW,8.1,-,N/A,,Overcast,250,2013-12-10 14:35:00
9:55 AM,32.0,28.4,87,29.85,10.0,SW,6.9,-,N/A,,Overcast,230,2013-12-10 14:55:00
10:15 AM,33.8,28.4,81,29.83,10.0,WSW,8.1,-,N/A,,Overcast,250,2013-12-10 15:15:00
10:35 AM,33.8,30.2,87,29.81,10.0,West,8.1,-,N/A,,Mostly Cloudy,260,2013-12-10 15:35:00
10:55 AM,33.8,30.2,87,29.82,10.0,West,8.1,-,N/A,,Mostly Cloudy,260,2013-12-10 15:55:00
11:15 AM,33.8,30.2,87,29.81,10.0,WSW,9.2,-,N/A,,Overcast,250,2013-12-10 16:15:00
11:35 AM,33.8,30.2,87,29.80,10.0,WSW,6.9,-,N/A,,Overcast,250,2013-12-10 16:35:00
11:55 AM,33.8,30.2,87,29.78,10.0,West,5.8,-,N/A,,Overcast,270,2013-12-10 16:55:00
12:15 PM,33.8,30.2,87,29.77,10.0,SW,5.8,-,N/A,,Mostly Cloudy,230,2013-12-10 17:15:00
12:35 PM,33.8,30.2,87,29.75,10.0,WSW,4.6,-,N/A,,Mostly Cloudy,240,2013-12-10 17:35:00
12:55 PM,33.8,30.2,87,29.74,10.0,West,3.5,-,N/A,,Overcast,260,2013-12-10 17:55:00
1:15 PM,33.8,30.2,87,29.73,10.0,WSW,5.8,-,N/A,,Overcast,250,2013-12-10 18:15:00
1:35 PM,33.8,32.0,93,29.72,10.0,WNW,5.8,-,N/A,,Overcast,300,2013-12-10 18:35:00
1:55 PM,33.8,30.2,87,29.72,10.0,West,6.9,-,N/A,,Overcast,280,2013-12-10 18:55:00
2:15 PM,33.8,30.2,87,29.73,10.0,West,4.6,-,N/A,,Overcast,270,2013-12-10 19:15:00
2:35 PM,33.8,30.2,87,29.71,10.0,NNW,3.5,-,N/A,,Overcast,340,2013-12-10 19:35:00
2:55 PM,32.0,30.2,93,29.73,1.0,NW,5.8,-,N/A,,Overcast,320,2013-12-10 19:55:00
3:15 PM,30.2,28.4,93,29.73,1.8,Calm,Calm,-,N/A,,Overcast,0,2013-12-10 20:15:00
3:35 PM,30.2,28.4,93,29.73,3.0,Calm,Calm,-,N/A,,Overcast,0,2013-12-10 20:35:00
3:55 PM,30.2,28.4,93,29.73,0.8,North,6.9,-,N/A,,Overcast,10,2013-12-10 20:55:00
4:15 PM,28.4,26.6,93,29.75,1.0,NNW,5.8,-,0.01,,Overcast,330,2013-12-10 21:15:00
4:35 PM,28.4,26.6,93,29.75,1.8,NNW,6.9,-,0.01,,Overcast,330,2013-12-10 21:35:00
4:55 PM,28.4,24.8,86,29.76,4.0,NW,3.5,-,0.01,,Overcast,320,2013-12-10 21:55:00
5:15 PM,28.4,24.8,86,29.76,10.0,Calm,Calm,-,N/A,,Mostly Cloudy,0,2013-12-10 22:15:00
5:35 PM,28.4,24.8,86,29.76,10.0,Calm,Calm,-,0.01,,Mostly Cloudy,0,2013-12-10 22:35:00
5:55 PM,28.4,24.8,86,29.76,10.0,WNW,3.5,-,0.01,,Overcast,300,2013-12-10 22:55:00
6:15 PM,28.4,24.8,86,29.77,10.0,WNW,3.5,-,N/A,,Overcast,300,2013-12-10 23:15:00
6:35 PM,28.4,24.8,86,29.77,10.0,NW,3.5,-,N/A,,Overcast,320,2013-12-10 23:35:00
6:55 PM,28.4,23.0,80,29.77,10.0,NW,4.6,-,N/A,,Mostly Cloudy,310,2013-12-10 23:55:00
7:15 PM,28.4,21.2,74,29.78,10.0,NW,3.5,-,N/A,,Overcast,310,2013-12-11 00:15:00
7:35 PM,26.6,21.2,80,29.78,10.0,NNW,5.8,-,N/A,,Overcast,330,2013-12-11 00:35:00
7:55 PM,26.6,17.6,69,29.78,10.0,NW,5.8,-,N/A,,Overcast,320,2013-12-11 00:55:00
8:15 PM,26.6,17.6,69,29.79,10.0,NNW,4.6,-,N/A,,Mostly Cloudy,330,2013-12-11 01:15:00
8:35 PM,26.6,17.6,69,29.79,10.0,NNW,4.6,-,N/A,,Scattered Clouds,330,2013-12-11 01:35:00
8:55 PM,24.8,17.6,74,29.80,10.0,NW,4.6,-,N/A,,Overcast,310,2013-12-11 01:55:00
9:15 PM,24.8,15.8,69,29.80,10.0,WNW,3.5,-,N/A,,Mostly Cloudy,300,2013-12-11 02:15:00
9:35 PM,24.8,15.8,69,29.81,10.0,WNW,3.5,-,N/A,,Partly Cloudy,300,2013-12-11 02:35:00
9:55 PM,23.0,15.8,74,29.81,10.0,WNW,4.6,-,N/A,,Scattered Clouds,290,2013-12-11 02:55:00
10:15 PM,23.0,14.0,68,29.82,10.0,NW,5.8,-,N/A,,Partly Cloudy,310,2013-12-11 03:15:00
10:35 PM,21.2,14.0,74,29.84,10.0,WNW,9.2,-,N/A,,Clear,290,2013-12-11 03:35:00
10:55 PM,21.2,12.2,68,29.86,10.0,WNW,4.6,-,N/A,,Clear,300,2013-12-11 03:55:00
11:15 PM,21.2,12.2,68,29.87,10.0,NW,4.6,-,N/A,,Clear,310,2013-12-11 04:15:00
11:35 PM,21.2,12.2,68,29.88,10.0,WNW,8.1,-,N/A,,Clear,300,2013-12-11 04:35:00
11:55 PM,21.2,12.2,68,29.89,10.0,WNW,6.9,-,N/A,,Clear,300,2013-12-11 04:55:00